Weather in Pereleski

Russia / Yaroslavl Oblast     56°52′11″N   39°03′26″E
temp.,
°C
wind,
m/s
gust,
m/s
humid.,
%
clouds,
%
prec.,
mm/h
press.,
hPa
HPBL,
m
15 august, mon
mon1500:00+21s2455100 0.0 102177
03:00+19sse236397 0.0 102257
06:00+18se236699 0.0 102255
09:00+23se345399 0.0 1022407
12:00+27ese453991 0.0 10231786
15:00+27se453691 0.0 10222091
18:00+26ese354442 0.0 1021223
21:00+20ese375597 0.0 1022102
16 august, tue
tue1600:00+18ese386499 0.0 1023139
03:00+17se3671100 0.0 1024111
06:00+17se367295 0.0 1024123
09:00+24se465323 0.0 1024566
12:00+27se46405 0.0 10232140
15:00+28ese453546 0.0 10222562
18:00+24e6104880 0.0 1022514
21:00+23ese3954100 0.0 1022256
17 august, wed
wed1700:00+22ese41055100 0.0 1022347
03:00+20ese395569 0.0 1022251
06:00+16ese377224 0.0 1022140
09:00+23ese46515 0.0 1022507
12:00+27ese55365 0.0 10211515
15:00+28ese34340 0.0 10201980
18:00+27e35420 0.0 1019324
21:00+20e38560 0.0 1020120
18 august, thu
thu1800:00+17ese38645 0.0 1020147
03:00+16ese34695 0.0 102167
06:00+16ese366821 0.0 1022107
09:00+22ese46474 0.0 1022473
12:00+27e56343 0.0 10211638
15:00+28e56300 0.0 10202144
18:00+26e58380 0.0 1020694
21:00+19e410570 0.0 1021179
19 august, fri
fri1900:00+17e311650 0.0 1022181
03:00+15e37750 0.0 1023117
06:00+15e410771 0.0 1023208
09:00+21ese595775 0.0 1024462
12:00+26se81239100 0.0 10241950
15:00+17ese61490100 1.3 1025660
18:00+17ese41091100 0.4 1025392
21:00+16e3590100 0.4 1025114